Location: Devargunta
(16.7631°N, 80.9077°E)
Time: 09:13:37
(UTC+00:00)

Cosmos 1777 Rocket - Pass Details

Date: 19 January 2021
Orbit: 758 x 776 km, 74.0° (Epoch: 01 March)

Event Time Altitude Azimuth Distance (km) Brightness Sun altitude
Exits shadow 23:27:31 46° 343° (NNW) 1,034 4.4 -24.0°
Maximum altitude 23:29:09 87° 256° (WSW) 776 3.9 -23.6°
Drops below altitude 10° 23:34:23 10° 169° (SSE) 2,302 6.8 -22.4°
Sets 23:36:45 0° 168° (SSE) 3,224 7.6 -21.8°
